Flag for U.S.A. Weather past 2 weeks in Sarasota, Florida, U.S.A.

Now
79 °F

Sunny.


Feels Like: 82 °F
Forecast: 76 / 93 °F
Wind: 9 mph from East

Location: Sarasota-Bradenton International Airport

Current Time: Aug 27, 2014 at 9:30:52 AM

Latest Report: Aug 27, 2014 at 8:53 AM


Visibility: 10 mi

Pressure: 29.96 "Hg

Humidity: 82%

Dew point: 73 °F

Location of SarasotaLocation

Historic Weather in Sarasota — Graph

°F

Sarasota temperature yesterday

Maximum temperature yesterday: 95 °F (at 2:53 PM)
Minimum temperature yesterday: 75 °F (at 4:53 AM)
Average temperature yesterday: 84 °F

Past Weeks' High & Low Weather Summary

 TemperatureHumidityPressure
High99 °F (Aug 23, 12:53 PM)94% (Aug 16, 3:53 AM)30.12 "Hg (Aug 16, 3:53 AM)
Low74 °F (Aug 27, 5:53 AM)37% (Aug 26, 2:53 PM)29.75 "Hg (Aug 24, 5:53 PM)
Average86 °F69%29.98 "Hg
* Reported Aug 12 7:53 AM — Aug 27 7:53 AM, Sarasota, Weather by CustomWeather, © 2014

Note: Actual official high and low records may vary slightly from our data, if they occured in-between our weather recording intervals... More about our weather records

Advertising

Sarasota weather history for previous 24 hours

 ConditionsComfort  
Time TempWeatherWind HumidityBarometerVisibility
7:53 AM
Aug 27
76 °FClear.6 mph88%29.95 "Hg10 mi
6:53 AM75 °FClear.7 mph90%29.94 "Hg10 mi
5:53 AM74 °FClear.6 mph91%29.92 "Hg10 mi
4:53 AM75 °FClear.5 mph88%29.91 "Hg10 mi
3:53 AM75 °FClear.6 mph88%29.91 "Hg10 mi
2:53 AM76 °FClear.6 mph82%29.91 "Hg10 mi
1:53 AM76 °FClear.5 mph80%29.93 "Hg10 mi
12:53 AM77 °FClear.7 mph77%29.94 "Hg10 mi
11:53 PM
Aug 26
79 °FClear.8 mph72%29.93 "Hg10 mi
10:53 PM81 °FClear.9 mph65%29.93 "Hg10 mi
9:53 PM82 °FClear.8 mph63%29.91 "Hg10 mi
8:53 PM83 °FSunny.7 mph55%29.89 "Hg10 mi
7:53 PM86 °FSunny.9 mph46%29.88 "Hg10 mi
6:53 PM90 °FSunny.13 mph42%29.85 "Hg10 mi
5:53 PM92 °FPassing clouds.16 mph43%29.85 "Hg10 mi
4:53 PM94 °FPassing clouds.16 mph41%29.85 "Hg10 mi
3:53 PM95 °FPassing clouds.15 mph40%29.85 "Hg10 mi
2:53 PM95 °FPassing clouds.12 mph37%29.87 "Hg10 mi
1:53 PM93 °FPassing clouds.15 mph44%29.88 "Hg10 mi
12:53 PM92 °FScattered clouds.13 mph49%29.88 "Hg10 mi
11:53 AM90 °FScattered clouds.15 mph56%29.89 "Hg10 mi
10:53 AM86 °FPassing clouds.15 mph63%29.90 "Hg10 mi
9:53 AM84 °FSunny.10 mph70%29.89 "Hg10 mi
Weather by CustomWeather, © 2014

See weather overviewHow to use our weather pages